Tracking 22881 objects as of 19-Apr-2021
HD Live streaming from Space Station
objects crossing your sky now

STARLINK-1790

Track STARLINK-1790 now!
10-day predictions
STARLINK-1790 is classified as:


NORAD ID: 46691
Int'l Code: 2020-073X
Perigee: 553.1 km
Apogee: 555.6 km
Inclination: 53.1 °
Period: 95.6 minutes
Semi major axis: 6925 km
RCS: Unknown
Launch date: October 18, 2020
Source: United States (US)
Launch site: AIR FORCE EASTERN TEST RANGE (AFETR)
aabbcc
Your satellite tracking list
Your tracking list is empty




NASA's NSSDC Master Catalog

Two Line Element Set (TLE):
1 46691U 20073X   21109.42072870  .00003233  00000-0  23589-3 0  9992
2 46691  53.0513 336.0055 0001773  86.3342 273.7850 15.06392745 28522
Source of the keplerian elements: AFSPC